Weather reports worldwide

Advertisment
Gioia Del Colle, Italy (16312): temperature & dewpoint: 15.06.2018 23:00:00 - 21.06.2018 23:00:00 (CEST)Gioia Del Colle, Italy (16312): wind speed: 15.06.2018 23:00:00 - 21.06.2018 23:00:00 (CEST)Gioia Del Colle, Italy (16312): wind direction: 15.06.2018 23:00:00 - 21.06.2018 23:00:00 (CEST)Gioia Del Colle, Italy (16312): reduced air pressure: 15.06.2018 23:00:00 - 21.06.2018 23:00:00 (CEST)Gioia Del Colle, Italy (16312): visibility: 15.06.2018 23:00:00 - 21.06.2018 23:00:00 (CEST)
Date & Time tt [°C] td [°C] ff [km/h] ff [kn] dd ppp [hPa] vv [km]
21.06.2018 23:00:00 19,0 16,2 8 4 SSE 1014,4 10
21.06.2018 22:00:00 19,0 17,0 5 3 SSW - 10
21.06.2018 21:00:00 21,0 15,0 11 6 S - 10
21.06.2018 20:00:00 22,0 16,3 11 6 S 1014,3 10
21.06.2018 19:00:00 23,0 17,0 8 4 S - 10
21.06.2018 18:00:00 23,0 16,0 5 3 SSW - 10
21.06.2018 17:00:00 23,0 18,5 4 2 SW 1014,8 10
21.06.2018 16:00:00 20,0 18,0 4 2 ESE - 10
21.06.2018 15:00:00 18,0 15,0 18 10 W - 8
21.06.2018 14:00:00 16,0 10,5 29 16 S 1016,8 2,5
21.06.2018 13:00:00 28,0 6,0 8 4 E - 10
21.06.2018 12:00:00 28,0 8,0 11 6 NNE - 10
21.06.2018 11:00:00 27,0 9,4 5 3 SSE 1015,9 10
21.06.2018 10:00:00 26,0 11,0 4 2 N - 10
21.06.2018 09:00:00 25,0 15,0 9 5 N - 10
21.06.2018 08:00:00 22,4 20,9 8 4 N 1016,7 7
21.06.2018 07:00:00 19,0 19,0 2 1 - - 5
21.06.2018 06:00:00 19,0 19,0 4 2 NNW - 0,1
21.06.2018 05:00:00 19,0 18,8 5 3 NE 1017,7 0,1
21.06.2018 04:00:00 19,0 19,0 5 3 NW - 0,1
21.06.2018 03:00:00 19,0 19,0 4 2 N - 1,5
21.06.2018 02:00:00 18,6 17,8 2 1 N 1018,4 8
21.06.2018 01:00:00 19,0 18,0 4 2 N - 10
21.06.2018 00:00:00 19,0 18,0 4 2 NNW - 10
20.06.2018 23:00:00 19,8 18,5 5 3 NW 1018,2 10
20.06.2018 22:00:00 20,0 18,0 9 5 NNE - 10
20.06.2018 21:00:00 22,0 17,0 5 3 NNE - 10
20.06.2018 20:00:00 23,0 16,1 5 3 NW 1016,6 10
20.06.2018 19:00:00 24,0 15,0 5 3 NW - 10
20.06.2018 18:00:00 24,0 13,0 8 4 NW - 10
20.06.2018 17:00:00 23,2 13,4 4 2 W 1016,7 10
20.06.2018 16:00:00 22,0 13,0 5 3 SSW - 10
20.06.2018 15:00:00 20,0 14,0 18 10 S - 10
20.06.2018 14:00:00 25,2 15,8 16 9 N 1016,1 10
20.06.2018 13:00:00 27,0 17,0 18 10 NNE - 10
20.06.2018 12:00:00 26,0 16,0 16 9 NNE - 10
20.06.2018 11:00:00 26,0 16,5 15 8 NNE 1016,5 10
20.06.2018 10:00:00 24,0 18,0 13 7 NNW - 10
20.06.2018 09:00:00 23,0 17,0 16 9 N - 10
20.06.2018 08:00:00 21,6 16,6 9 5 NNW 1017,0 10
20.06.2018 07:00:00 21,0 18,0 13 7 NNW - 10
20.06.2018 06:00:00 19,0 16,0 11 6 NW - 10
20.06.2018 05:00:00 18,2 16,2 13 7 NNW 1016,3 10
20.06.2018 04:00:00 18,0 16,0 8 4 NW - 10
20.06.2018 03:00:00 19,0 17,0 4 2 - - 10
20.06.2018 02:00:00 18,8 17,7 8 4 NNW 1016,2 10
20.06.2018 01:00:00 20,0 17,0 8 4 NNW - 10
20.06.2018 00:00:00 21,0 17,0 13 7 N - 10
19.06.2018 23:00:00 20,8 17,6 13 7 N 1015,7 10
19.06.2018 22:00:00 21,0 17,0 15 8 NNW - 10
19.06.2018 21:00:00 22,0 16,0 13 7 NNW - 10
19.06.2018 20:00:00 23,0 12,9 21 11 NNW 1014,1 10
19.06.2018 19:00:00 25,0 12,0 21 11 N - 10
19.06.2018 18:00:00 25,0 10,0 22 12 N - 10
19.06.2018 17:00:00 25,2 11,0 28 15 N 1013,2 10
19.06.2018 16:00:00 26,0 12,0 28 15 N - 10
19.06.2018 15:00:00 26,0 12,0 26 14 N - 10
19.06.2018 14:00:00 25,6 11,7 28 15 N 1013,8 10
19.06.2018 13:00:00 25,0 11,0 26 14 N - 10
19.06.2018 12:00:00 26,0 15,0 21 11 NNW - 10
19.06.2018 11:00:00 25,6 15,3 21 11 NNW 1013,4 10
19.06.2018 10:00:00 24,0 17,0 21 11 NNW - 10
19.06.2018 09:00:00 23,0 19,0 22 12 NNW - 10
19.06.2018 08:00:00 21,6 19,2 16 9 NNW 1012,7 10
19.06.2018 07:00:00 21,0 19,0 21 11 NNW - 10
19.06.2018 06:00:00 20,0 18,0 21 11 NNW - 10
19.06.2018 05:00:00 20,0 17,4 22 12 NNW 1011,4 10
19.06.2018 04:00:00 20,0 16,0 21 11 NW - 10
19.06.2018 03:00:00 21,0 16,0 18 10 NW - 10
19.06.2018 02:00:00 21,0 16,2 21 11 NW 1011,3 10
19.06.2018 01:00:00 21,0 17,0 21 11 NW - 10
19.06.2018 00:00:00 21,0 17,0 15 8 NW - 10
18.06.2018 23:00:00 21,2 17,0 9 5 NNW 1011,7 10
18.06.2018 22:00:00 21,0 16,0 15 8 N - 10
18.06.2018 21:00:00 22,0 14,0 15 8 N - 10
18.06.2018 20:00:00 23,2 14,2 18 10 N 1010,7 10
18.06.2018 19:00:00 24,0 16,0 22 12 N - 10
18.06.2018 18:00:00 24,0 16,0 22 12 NNW - 10
18.06.2018 17:00:00 25,4 15,1 22 12 NNW 1009,8 10
18.06.2018 16:00:00 26,0 15,0 21 11 NNW - 10
18.06.2018 15:00:00 26,0 16,0 22 12 N - 10
18.06.2018 14:00:00 26,4 15,2 24 13 N 1009,8 10
18.06.2018 13:00:00 26,0 14,0 18 10 NNW - 10
18.06.2018 12:00:00 - - - - - - -
18.06.2018 11:00:00 23,8 12,5 16 9 N 1010,5 10
18.06.2018 10:00:00 23,0 13,0 16 9 NNW - 10
18.06.2018 09:00:00 23,0 13,0 15 8 NNW - 10
18.06.2018 08:00:00 22,0 14,4 11 6 WNW 1010,7 10
18.06.2018 07:00:00 19,0 19,0 11 6 NNW - 10
18.06.2018 06:00:00 18,0 15,0 11 6 NNW - 10
18.06.2018 05:00:00 18,0 13,5 11 6 NNW 1011,3 10
18.06.2018 04:00:00 18,0 14,0 13 7 WNW - 10
18.06.2018 03:00:00 17,0 14,0 11 6 WNW - 10
18.06.2018 02:00:00 17,0 15,4 11 6 WNW 1011,8 10
18.06.2018 01:00:00 17,0 15,0 4 2 WNW - 10
18.06.2018 00:00:00 18,0 17,0 8 4 WNW - 10
17.06.2018 23:00:00 19,0 17,0 8 4 NNW 1011,5 10
17.06.2018 22:00:00 20,0 18,0 8 4 NNW - 10
17.06.2018 21:00:00 20,0 16,0 15 8 N - 10
17.06.2018 20:00:00 22,4 13,5 15 8 N 1010,0 10
17.06.2018 19:00:00 23,0 12,0 18 10 N - 10
17.06.2018 18:00:00 24,0 12,0 18 10 N - 10
17.06.2018 17:00:00 24,8 11,4 21 11 NNW 1009,6 10
17.06.2018 16:00:00 25,0 12,0 22 12 N - 10
17.06.2018 15:00:00 25,0 11,0 24 13 N - 10
17.06.2018 14:00:00 24,4 12,1 22 12 NNW 1010,1 10
17.06.2018 13:00:00 24,0 13,0 21 11 N - 10
17.06.2018 12:00:00 24,0 13,0 22 12 NNW - 10
17.06.2018 11:00:00 23,2 14,2 21 11 NNW 1009,9 10
17.06.2018 10:00:00 22,0 14,0 18 10 NNW - 10
17.06.2018 09:00:00 21,0 15,0 16 9 NNW - 10
17.06.2018 08:00:00 20,0 15,4 21 11 NW 1009,9 10
17.06.2018 07:00:00 18,0 15,0 13 7 NW - 9
17.06.2018 06:00:00 17,0 16,0 8 4 WNW - 8
17.06.2018 05:00:00 16,8 15,7 8 4 WNW 1010,0 8
17.06.2018 04:00:00 - - - - - - -
17.06.2018 03:00:00 17,0 15,0 9 5 WNW - 10
17.06.2018 02:00:00 16,6 14,8 13 7 WNW 1010,0 10
17.06.2018 01:00:00 17,0 14,0 11 6 NW - 10
17.06.2018 00:00:00 18,0 15,0 15 8 NW - 10
16.06.2018 23:00:00 18,4 15,5 11 6 WNW 1009,7 10
16.06.2018 22:00:00 19,0 14,0 11 6 NW - 10
16.06.2018 21:00:00 20,0 16,0 11 6 NNW - 10
16.06.2018 20:00:00 21,0 16,0 9 5 NNW 1008,3 10
16.06.2018 19:00:00 21,0 16,0 15 8 WNW - 10
16.06.2018 18:00:00 22,0 15,0 18 10 NNW - 10
16.06.2018 17:00:00 22,0 12,5 18 10 NNW 1008,0 10
16.06.2018 16:00:00 20,0 13,0 24 13 WNW - 10
16.06.2018 15:00:00 22,0 14,0 16 9 NNW - 10
16.06.2018 14:00:00 21,0 13,7 24 13 WNW 1008,0 10
16.06.2018 13:00:00 23,0 13,0 26 14 NNW - 10
16.06.2018 12:00:00 22,0 13,0 24 13 NNW - 10
16.06.2018 11:00:00 22,0 12,8 28 15 NNW 1007,8 10
16.06.2018 10:00:00 19,0 16,0 18 10 N - 10
16.06.2018 09:00:00 18,0 15,0 21 11 NNW - 10
16.06.2018 08:00:00 18,2 15,5 24 13 NW 1008,0 10
16.06.2018 07:00:00 18,0 15,0 24 13 NW - 10
16.06.2018 06:00:00 17,0 14,0 18 10 NW - 10
16.06.2018 05:00:00 17,8 14,9 22 12 NW 1006,6 10
16.06.2018 04:00:00 18,0 15,0 18 10 NW - 10
16.06.2018 03:00:00 18,0 13,0 18 10 NW - 10
16.06.2018 02:00:00 17,8 14,3 16 9 NW 1007,2 10
16.06.2018 01:00:00 18,0 15,0 15 8 NW - 10
16.06.2018 00:00:00 18,0 15,0 18 10 NW - 10
15.06.2018 23:00:00 17,6 15,6 16 9 NW 1007,2 10

tt = temperature
td = dewpoint
ff = wind speed
dd = wind direction
ppp = reduced air pressure
vv = visibility

Next stations